KG6SIB Weather Reports


time (UTC)temp
C
wind
direction
speed
KPH
gust
KPH
rain 1hr
cm
rain 24hr
cm
rain mn
cm
humidity
%
barometer
mb
20260505173644 7 240 12.9 17.7 0.08 0.89 0.89 95 1013.8
20260505173144 7 234 8.0 17.7 0.08 0.89 0.89 95 1013.9
20260505172644 7 243 3.2 19.3 0.08 0.89 0.89 95 1013.9
20260505171644 7 230 19.3 20.9 0.10 0.89 0.89 95 1013.7
20260505171144 7 246 14.5 20.9 0.13 0.89 0.89 95 1013.7
20260505170644 7 217 11.3 20.9 0.15 0.89 0.89 95 1013.6
20260505170144 7 238 3.2 14.5 0.20 0.86 0.86 95 1013.6
20260505165644 7 228 9.7 14.5 0.23 0.86 0.86 95 1013.4
20260505165144 7 242 4.8 14.5 0.25 0.86 0.86 95 1013.4
20260505164644 7 241 9.7 17.7 0.23 0.84 0.84 95 1013.3
20260505164144 7 242 8.0 17.7 0.25 0.84 0.84 95 1013.3
20260505163644 7 249 12.9 16.1 0.23 0.81 0.81 95 1013.1
20260505163144 7 238 6.4 19.3 0.23 0.81 0.81 95 1013.2
20260505162643 7 240 12.9 19.3 0.23 0.81 0.81 94 1013.2
20260505162144 7 240 14.5 24.1 0.20 0.79 0.79 95 1013.1
20260505161643 7 225 6.4 24.1 0.20 0.79 0.79 95 1013.0
20260505161144 7 249 8.0 25.7 0.18 0.76 0.76 94 1012.9
20260505160644 7 233 0.0 25.7 0.15 0.74 0.74 94 1012.9
20260505160144 7 219 8.0 20.9 0.08 0.66 0.66 95 1012.7
20260505153144 7 252 4.8 16.1 0.00 0.58 0.58 95 1012.8
20260505152643 7 233 3.2 11.3 0.00 0.58 0.58 95 1012.8
20260505151643 7 229 3.2 11.3 0.00 0.58 0.58 95 1012.8
20260505151143 7 227 3.2 14.5 0.00 0.58 0.58 94 1012.7
20260505150643 7 250 1.6 14.5 0.03 0.58 0.58 94 1012.6
20260505150142 7 234 3.2 16.1 0.05 0.58 0.58 95 1012.6
20260505140642 7 213 11.3 17.7 0.10 0.56 0.56 94 1012.3
20260505140142 7 239 9.7 19.3 0.08 0.53 0.53 94 1012.3
20260505124641 7 227 16.1 24.1 0.18 0.46 0.46 94 1012.2
20260505124142 7 202 16.1 22.5 0.18 0.46 0.46 94 1012.3
20260505123641 7 243 9.7 22.5 0.13 0.41 0.41 94 1012.1
20260505122641 7 227 1.6 19.3 0.13 0.41 0.41 94 1012.2
20260505122141 7 242 4.8 22.5 0.13 0.41 0.41 94 1012.2
20260505121641 7 245 12.9 24.1 0.13 0.41 0.41 94 1012.1
20260505121141 7 228 12.9 24.1 0.13 0.41 0.41 94 1012.1
20260505120641 7 242 12.9 20.9 0.13 0.38 0.38 94 1012.1
20260505120141 7 231 4.8 20.9 0.10 0.36 0.36 94 1012.0
20260505115640 7 263 9.7 20.9 0.05 0.30 0.30 94 1012.1
20260505115141 7 219 16.1 20.9 0.03 0.28 0.28 94 1012.1
20260505114641 7 253 3.2 17.7 0.03 0.28 0.28 94 1012.1
20260505114140 7 223 11.3 19.3 0.03 0.28 0.28 94 1012.2
20260505113640 7 242 8.0 19.3 0.03 0.28 0.28 93 1012.2
20260505113141 7 248 11.3 19.3 0.03 0.28 0.28 94 1012.2
20260505112141 7 227 1.6 14.5 0.08 0.28 0.28 93 1012.3
20260505111640 7 239 12.9 14.5 0.08 0.28 0.28 93 1012.4
20260505111140 7 236 8.0 17.7 0.08 0.28 0.28 93 1012.5
20260505110140 7 221 8.0 24.1 0.05 0.25 0.25 93 1012.4
20260505102139 7 248 14.5 17.7 0.10 0.20 0.20 93 1012.4
20260505101639 7 245 8.0 22.5 0.13 0.20 0.20 92 1012.5
20260505101139 7 229 9.7 22.5 0.15 0.20 0.20 92 1012.5
20260505100639 7 237 14.5 19.3 0.15 0.20 0.20 92 1012.5
20260505100139 7 248 6.4 14.5 0.18 0.20 0.20 92 1012.6
20260505095639 7 238 4.8 14.5 0.15 0.18 0.18 92 1012.6
20260505095139 7 233 9.7 11.3 0.18 0.18 0.18 92 1012.7
20260505094639 7 227 3.2 9.7 0.15 0.15 0.15 92 1012.8
20260505094139 7 250 6.4 16.1 0.15 0.15 0.15 91 1012.8
20260505093639 7 251 6.4 16.1 0.15 0.15 0.15 91 1012.9
20260505093139 7 244 4.8 12.9 0.13 0.13 0.13 91 1012.9
20260505092639 7 231 0.0 0.0 0.10 0.10 0.10 91 1012.9
20260505092139 7 231 0.0 0.0 0.10 0.10 0.10 90 1013.0
20260505091639 7 231 0.0 0.0 0.08 0.08 0.08 90 1013.0
20260505091139 7 231 0.0 3.2 0.05 0.05 0.05 90 1013.0
20260505090639 7 231 0.0 3.2 0.05 0.05 0.05 90 1013.0
20260505090139 7 231 0.0 1.6 0.03 0.03 0.03 89 1013.1
20260505085639 7 231 0.0 4.8 0.03 0.03 0.03 89 1013.4
20260505085139 7 231 0.0 8.0 0.00 0.00 0.00 88 1013.3
20260505084638 7 231 1.6 11.3 0.00 0.00 0.00 88 1013.4
20260505084139 7 232 6.4 11.3 0.00 0.00 0.00 88 1013.5
20260505083639 7 269 11.3 11.3 0.00 0.00 0.00 88 1013.7
20260505083138 7 232 3.2 6.4 0.00 0.00 0.00 88 1013.7
20260505082638 7 233 4.8 8.0 0.00 0.00 0.00 88 1013.9
20260505082139 7 233 3.2 8.0 0.00 0.00 0.00 88 1014.0
20260505081139 7 237 1.6 8.0 0.00 0.00 0.00 88 1014.2
20260505080639 7 238 6.4 8.0 0.00 0.00 0.00 88 1014.2
20260505080138 7 244 6.4 8.0 0.00 0.00 0.00 88 1014.3
20260505075638 7 245 4.8 11.3 0.00 0.00 0.00 88 1014.1
20260505075138 7 245 4.8 11.3 0.00 0.00 0.00 88 1014.2
20260505074638 7 236 1.6 11.3 0.00 0.00 0.00 88 1014.1
20260505074138 7 235 4.8 11.3 0.00 0.00 0.00 88 1014.1
20260505072138 7 237 4.8 16.1 0.00 0.00 0.00 88 1014.3
20260505071638 7 244 11.3 16.1 0.00 0.00 0.00 88 1014.3
20260505071138 8 244 8.0 14.5 0.00 0.00 0.00 88 1014.6
20260505070138 8 246 1.6 9.7 0.00 0.00 0.00 88 1014.6
20260505065638 8 227 4.8 12.9 0.00 0.00 0.00 88 1014.2
20260505065137 8 236 3.2 16.1 0.00 0.00 0.00 88 1014.2
20260505064638 8 236 8.0 16.1 0.00 0.00 0.00 88 1014.3
20260505064137 8 242 3.2 12.9 0.00 0.00 0.00 88 1014.3
20260505063637 8 245 8.0 14.5 0.00 0.00 0.00 88 1014.4
20260505063138 8 234 4.8 14.5 0.00 0.00 0.00 88 1014.5
20260505062637 8 265 12.9 14.5 0.00 0.00 0.00 88 1014.5
20260505062137 8 229 6.4 12.9 0.00 0.00 0.00 88 1014.4
20260505061637 8 270 4.8 16.1 0.00 0.00 0.00 88 1014.3
20260505061137 8 235 0.0 16.1 0.00 0.00 0.00 88 1014.4
20260505060137 8 250 4.8 17.7 0.00 0.00 0.00 87 1014.6
20260505055637 8 242 3.2 14.5 0.00 0.00 0.00 87 1014.3
20260505055137 8 232 9.7 14.5 0.00 0.00 0.00 87 1014.3
20260505054636 8 244 3.2 17.7 0.00 0.00 0.00 87 1014.4
20260505054137 8 192 3.2 17.7 0.00 0.00 0.00 87 1014.4
20260505053637 8 246 3.2 14.5 0.00 0.00 0.00 87 1014.5
20260505053137 8 237 4.8 14.5 0.00 0.00 0.00 86 1014.5
20260505052636 8 235 9.7 17.7 0.00 0.00 0.00 86 1014.6
20260505052137 8 227 6.4 17.7 0.00 0.00 0.00 85 1014.7
20260505051637 8 242 8.0 17.7 0.00 0.00 0.00 85 1014.7
20260505051136 8 241 12.9 22.5 0.00 0.00 0.00 86 1014.7
20260505050636 8 228 3.2 22.5 0.00 0.00 0.00 85 1014.8
20260505050136 8 238 6.4 19.3 0.00 0.00 0.00 86 1014.8
20260505041636 8 198 8.0 16.1 0.00 0.00 0.00 87 1014.3
20260505041135 8 240 6.4 22.5 0.00 0.00 0.00 86 1014.3
20260505040636 8 219 9.7 22.5 0.00 0.00 0.00 86 1014.4
20260505040136 8 244 11.3 22.5 0.00 0.00 0.00 86 1014.4
20260505035636 8 240 16.1 19.3 0.00 0.00 0.00 86 1014.3
20260505034635 8 231 3.2 20.9 0.00 0.00 0.00 85 1014.2
20260505034135 8 252 17.7 20.9 0.00 0.00 0.00 85 1014.3
20260505033635 8 227 6.4 19.3 0.00 0.00 0.00 86 1014.3
20260505033136 8 234 9.7 22.5 0.00 0.00 0.00 86 1014.1
20260505032135 8 219 11.3 20.9 0.00 0.00 0.00 85 1014.1
20260505031635 8 240 9.7 19.3 0.00 0.00 0.00 83 1014.3
20260505031135 8 228 6.4 19.3 0.00 0.00 0.00 83 1014.0
20260505030635 9 204 4.8 19.3 0.00 0.00 0.00 83 1013.9
20260505030135 9 248 4.8 20.9 0.00 0.00 0.00 83 1013.9
20260505025635 9 205 9.7 22.5 0.00 0.00 0.00 82 1013.8
20260505024635 9 223 8.0 22.5 0.00 0.00 0.00 82 1013.6
20260505024135 9 236 4.8 20.9 0.00 0.00 0.00 81 1013.4
20260505023635 9 210 8.0 22.5 0.00 0.00 0.00 80 1013.5
20260505023135 9 239 16.1 22.5 0.00 0.00 0.00 80 1013.5
20260505022635 9 202 6.4 20.9 0.00 0.00 0.00 79 1013.6
20260505022134 10 251 16.1 24.1 0.00 0.00 0.00 78 1013.5
20260505021634 10 229 14.5 24.1 0.00 0.00 0.00 77 1013.6
20260505021135 10 227 8.0 25.7 0.00 0.00 0.00 76 1013.7
20260505020635 10 225 16.1 25.7 0.00 0.00 0.00 75 1013.8
20260505020134 10 229 6.4 25.7 0.00 0.00 0.00 75 1013.6
20260505015135 11 227 8.0 19.3 0.00 0.00 0.00 74 1013.3
20260505014634 11 243 9.7 25.7 0.00 0.00 0.00 73 1013.3
20260505014135 11 182 4.8 33.8 0.00 0.00 0.00 73 1013.4
20260505013634 11 209 19.3 33.8 0.00 0.00 0.00 73 1013.6
20260505013134 11 225 16.1 29.0 0.00 0.00 0.00 72 1013.5
20260505012634 11 242 14.5 27.4 0.00 0.00 0.00 71 1013.8
20260505012134 11 199 14.5 32.2 0.00 0.00 0.00 69 1013.9
20260505011634 12 188 9.7 32.2 0.00 0.00 0.00 68 1013.8
20260505011134 12 248 11.3 30.6 0.00 0.00 0.00 68 1013.7
20260505010634 12 242 20.9 30.6 0.00 0.00 0.00 67 1013.7
20260505010133 12 198 14.5 25.7 0.00 0.00 0.00 66 1013.9
20260505005634 12 215 8.0 27.4 0.00 0.00 0.00 66 1014.2
20260505005133 12 229 14.5 27.4 0.00 0.00 0.00 66 1014.1
20260505004633 12 220 12.9 22.5 0.00 0.00 0.00 66 1014.1
20260505004134 13 217 8.0 24.1 0.00 0.00 0.00 64 1014.0
20260505003634 13 194 8.0 24.1 0.00 0.00 0.00 64 1014.1
20260505003134 13 257 19.3 25.7 0.00 0.00 0.00 63 1014.3
20260505002634 13 259 19.3 25.7 0.00 0.00 0.00 62 1014.3
20260505002134 13 236 11.3 25.7 0.00 0.00 0.00 63 1014.4
20260505001633 13 220 4.8 24.1 0.00 0.00 0.00 62 1014.3
20260505000633 12 219 9.7 25.7 0.00 0.00 0.00 64 1014.1
20260505000133 13 215 3.2 24.1 0.00 0.00 0.00 64 1014.3
20260504235633 13 215 16.1 24.1 0.00 0.00 0.00 64 1014.5
20260504235133 12 204 9.7 24.1 0.00 0.00 0.00 64 1014.4
20260504233133 12 201 8.0 24.1 0.00 0.00 0.00 63 1014.2
20260504232633 12 240 8.0 24.1 0.00 0.00 0.00 62 1014.1
20260504232132 12 211 17.7 24.1 0.00 0.00 0.00 63 1014.2
20260504231632 12 265 6.4 16.1 0.00 0.00 0.00 63 1014.1
20260504231132 12 214 3.2 16.1 0.00 0.00 0.00 62 1014.1
20260504230632 13 228 3.2 22.5 0.00 0.00 0.00 63 1014.6
20260504230133 13 254 16.1 25.7 0.00 0.00 0.00 62 1014.5
20260504225632 13 224 4.8 25.7 0.00 0.00 0.00 61 1014.4
20260504225133 13 249 16.1 24.1 0.00 0.00 0.00 61 1014.4
20260504224632 13 233 9.7 24.1 0.00 0.00 0.00 62 1014.5
20260504224132 13 251 11.3 25.7 0.00 0.00 0.00 62 1014.5
20260504223132 13 234 4.8 24.1 0.00 0.00 0.00 60 1014.2
20260504222632 13 235 17.7 20.9 0.00 0.00 0.00 60 1014.5
20260504222132 13 217 12.9 20.9 0.00 0.00 0.00 61 1014.7
20260504221632 13 225 11.3 22.5 0.00 0.00 0.00 61 1014.8
20260504221132 13 227 9.7 22.5 0.00 0.00 0.00 60 1014.8
20260504220632 13 255 11.3 24.1 0.00 0.00 0.00 61 1014.8
20260504215632 13 180 4.8 27.4 0.00 0.00 0.00 60 1015.1
20260504215132 14 253 14.5 27.4 0.00 0.00 0.00 60 1015.0
20260504214632 14 247 19.3 29.0 0.00 0.00 0.00 60 1015.1
20260504214131 14 224 3.2 29.0 0.00 0.00 0.00 61 1015.1
20260504213631 14 217 4.8 27.4 0.00 0.00 0.00 61 1015.2
20260504213132 14 215 4.8 24.1 0.00 0.00 0.00 60 1015.3
20260504212631 14 202 6.4 24.1 0.00 0.00 0.00 60 1015.3
20260504211631 15 221 6.4 20.9 0.00 0.00 0.00 57 1015.6
20260504211131 15 255 6.4 24.1 0.00 0.00 0.00 60 1015.5
20260504210631 14 158 4.8 25.7 0.00 0.00 0.00 59 1015.3
20260504210132 14 248 17.7 25.7 0.00 0.00 0.00 58 1015.2
20260504205631 15 205 6.4 25.7 0.00 0.00 0.00 59 1015.6
20260504205131 15 260 9.7 29.0 0.00 0.00 0.00 59 1015.7
20260504204631 15 230 12.9 29.0 0.00 0.00 0.00 60 1015.5
20260504204131 14 211 8.0 22.5 0.00 0.00 0.00 59 1015.1
20260504203131 15 231 11.3 25.7 0.00 0.00 0.00 57 1015.6
20260504202631 15 232 9.7 22.5 0.00 0.00 0.00 60 1015.7
20260504202131 14 218 3.2 24.1 0.00 0.00 0.00 60 1015.4
20260504200130 13 241 20.9 25.7 0.00 0.00 0.00 61 1015.5
20260504195630 13 236 4.8 25.7 0.00 0.00 0.00 64 1015.6
20260504194130 13 172 4.8 22.5 0.00 0.00 0.00 63 1015.6
20260504193631 13 235 4.8 22.5 0.00 0.00 0.00 64 1015.7
20260504193130 13 202 3.2 22.5 0.00 0.00 0.00 65 1015.5
20260504192631 12 240 4.8 22.5 0.00 0.00 0.00 66 1015.4
20260504192130 12 252 11.3 22.5 0.00 0.00 0.00 68 1015.2
20260504191630 12 244 11.3 17.7 0.00 0.00 0.00 70 1015.2
20260504191130 12 232 4.8 19.3 0.00 0.00 0.00 68 1015.3
20260504190130 12 222 8.0 22.5 0.00 0.00 0.00 73 1015.3
20260504185630 11 225 9.7 17.7 0.00 0.00 0.00 73 1015.4
20260504184630 11 242 4.8 20.9 0.00 0.00 0.00 73 1015.5
20260504183129 11 227 12.9 19.3 0.00 0.00 0.00 75 1015.3
20260504182630 11 231 1.6 19.3 0.00 0.00 0.00 75 1015.4
20260504182130 11 238 12.9 17.7 0.00 0.00 0.00 73 1015.5
20260504181629 11 220 8.0 20.9 0.00 0.00 0.00 74 1015.5
20260504181130 11 200 4.8 20.9 0.00 0.00 0.00 74 1015.4
20260504180630 11 214 8.0 17.7 0.00 0.00 0.00 77 1015.0
20260504180129 11 272 11.3 19.3 0.00 0.00 0.00 76 1015.0
20260504175630 11 229 9.7 19.3 0.00 0.00 0.00 74 1015.3